Zurück zum Katalog

THOR ABLESTAR DEB

AktivLEO
NORAD 327·DEBRIS·🇺🇸 United States

Gestartet Jun 29, 1961 von Cape Canaveral Space Force Station

Loading…

Nächste Überflüge (nächste 24 Stunden)

TLE

AktuellSource: Space-Track

Epoche: Sep 8, 2026, 19:56 UTC

1 00327U 61015DD  26251.83060278  .00000090  00000-0  12873-3 0  9998
2 00327  66.5428 181.4791 0104583  78.5756 282.7045 13.90900739298373

Verfolge THOR ABLESTAR DEB in Echtzeit mit AllMySat

Download on the App Store